R1CBW-13 Weather Reports


time (UTC)temp
F
wind
direction
speed
knots
gust
knots
rain 1hr
in
rain 24hr
in
rain mn
in
humidity
%
barometer
mb
20260504110652 65 0 0.0 0.0 0.00 0.00 0.00 46 1002.4
20260504110552 65 0 0.0 0.0 0.00 0.00 0.00 45 1002.4
20260504110452 65 0 0.0 0.0 0.00 0.00 0.00 45 1002.5
20260504110352 66 0 0.0 0.0 0.00 0.00 0.00 45 1002.5
20260504110252 65 0 0.0 0.0 0.00 0.00 0.00 45 1002.5
20260504110152 66 0 0.0 0.0 0.00 0.00 0.00 44 1002.5
20260504100551 67 0 0.0 0.0 0.00 0.00 0.00 43 1003.1
20260504100451 66 0 0.0 0.0 0.00 0.00 0.00 44 1003.1
20260504100351 66 0 0.0 0.0 0.00 0.00 0.00 44 1003.0
20260504100251 66 0 0.0 0.0 0.00 0.00 0.00 44 1003.1
20260504100151 66 0 0.0 0.0 0.00 0.00 0.00 44 1003.1
20260504081949 63 0 0.0 0.0 0.00 0.00 0.00 48 1003.8
20260504081849 63 0 0.0 0.0 0.00 0.00 0.00 48 1003.7
20260504081749 63 0 0.0 0.0 0.00 0.00 0.00 48 1003.8
20260504081649 62 0 0.0 0.0 0.00 0.00 0.00 48 1003.9
20260504081549 62 0 0.0 0.0 0.00 0.00 0.00 48 1003.9
20260504081449 63 0 0.0 0.0 0.00 0.00 0.00 47 1003.8
20260504081349 63 0 0.0 0.0 0.00 0.00 0.00 47 1003.8
20260504081249 64 0 0.0 0.0 0.00 0.00 0.00 46 1003.8
20260504081149 64 0 0.0 0.0 0.00 0.00 0.00 46 1003.8
20260504081049 63 0 0.0 0.0 0.00 0.00 0.00 47 1003.8
20260504080949 63 0 0.0 0.0 0.00 0.00 0.00 47 1003.8
20260504080849 62 0 0.0 0.0 0.00 0.00 0.00 48 1003.8
20260504080749 63 0 0.0 0.0 0.00 0.00 0.00 47 1003.8
20260504080649 63 0 0.0 0.0 0.00 0.00 0.00 48 1003.8
20260504080549 62 0 0.0 0.0 0.00 0.00 0.00 48 1003.8
20260504080449 62 0 0.0 0.0 0.00 0.00 0.00 49 1003.9
20260504080349 63 0 0.0 0.0 0.00 0.00 0.00 47 1003.9
20260504080249 62 0 0.0 0.0 0.00 0.00 0.00 48 1003.9
20260504080149 62 0 0.0 0.0 0.00 0.00 0.00 48 1004.0
20260504070348 61 0 0.0 0.0 0.00 0.00 0.00 48 1004.6
20260504070248 62 0 0.0 0.0 0.00 0.00 0.00 47 1004.5
20260504070148 62 0 0.0 0.0 0.00 0.00 0.00 47 1004.6
20260504060247 58 0 0.0 0.0 0.00 0.00 0.00 53 1004.9
20260504060147 57 0 0.0 0.0 0.00 0.00 0.00 54 1004.9
20260504050746 55 0 0.0 0.0 0.00 0.00 0.00 58 1005.3
20260504050646 56 0 0.0 0.0 0.00 0.00 0.00 58 1005.4
20260504050546 56 0 0.0 0.0 0.00 0.00 0.00 59 1005.3
20260504050446 55 0 0.0 0.0 0.00 0.00 0.00 59 1005.4
20260504050346 54 0 0.0 0.0 0.00 0.00 0.00 60 1005.4
20260504050246 55 0 0.0 0.0 0.00 0.00 0.00 59 1005.3
20260504050146 55 0 0.0 0.0 0.00 0.00 0.00 59 1005.4
20260504045946 55 0 0.0 0.0 0.00 0.00 0.00 60 1005.4
20260504045846 55 0 0.0 0.0 0.00 0.00 0.00 60 1005.4
20260504045746 55 0 0.0 0.0 0.00 0.00 0.00 59 1005.4
20260504045646 55 0 0.0 0.0 0.00 0.00 0.00 60 1005.4
20260504045546 55 0 0.0 0.0 0.00 0.00 0.00 61 1005.5
20260504045446 56 0 0.0 0.0 0.00 0.00 0.00 59 1005.4
20260504045346 56 0 0.0 0.0 0.00 0.00 0.00 60 1005.4
20260504045246 56 0 0.0 0.0 0.00 0.00 0.00 60 1005.5
20260504045146 56 0 0.0 0.0 0.00 0.00 0.00 59 1005.5
20260504045046 56 0 0.0 0.0 0.00 0.00 0.00 60 1005.5
20260504044946 55 0 0.0 0.0 0.00 0.00 0.00 60 1005.6
20260504044846 56 0 0.0 0.0 0.00 0.00 0.00 60 1005.6
20260504044746 56 0 0.0 0.0 0.00 0.00 0.00 60 1005.5
20260504044646 56 0 0.0 0.0 0.00 0.00 0.00 61 1005.5
20260504044546 55 0 0.0 0.0 0.00 0.00 0.00 61 1005.5
20260504044446 55 0 0.0 0.0 0.00 0.00 0.00 62 1005.6
20260504044346 55 0 0.0 0.0 0.00 0.00 0.00 62 1005.6
20260504044246 55 0 0.0 0.0 0.00 0.00 0.00 62 1005.5
20260504044146 55 0 0.0 0.0 0.00 0.00 0.00 62 1005.6
20260504044046 55 0 0.0 0.0 0.00 0.00 0.00 63 1005.6
20260504043946 55 0 0.0 0.0 0.00 0.00 0.00 62 1005.6
20260504043846 55 0 0.0 0.0 0.00 0.00 0.00 62 1005.6
20260504043746 55 0 0.0 0.0 0.00 0.00 0.00 61 1005.6
20260504043646 55 0 0.0 0.0 0.00 0.00 0.00 62 1005.6
20260504043546 55 0 0.0 0.0 0.00 0.00 0.00 62 1005.6
20260504043446 55 0 0.0 0.0 0.00 0.00 0.00 61 1005.6
20260504043346 55 0 0.0 0.0 0.00 0.00 0.00 61 1005.6
20260504043246 55 0 0.0 0.0 0.00 0.00 0.00 61 1005.6
20260504043146 55 0 0.0 0.0 0.00 0.00 0.00 61 1005.7
20260504043046 55 0 0.0 0.0 0.00 0.00 0.00 61 1005.6
20260504042946 55 0 0.0 0.0 0.00 0.00 0.00 61 1005.6
20260504042846 55 0 0.0 0.0 0.00 0.00 0.00 61 1005.6
20260504042746 54 0 0.0 0.0 0.00 0.00 0.00 62 1005.7
20260504042646 55 0 0.0 0.0 0.00 0.00 0.00 61 1005.6
20260504042546 55 0 0.0 0.0 0.00 0.00 0.00 60 1005.6
20260504042446 54 0 0.0 0.0 0.00 0.00 0.00 60 1005.6
20260504042346 54 0 0.0 0.0 0.00 0.00 0.00 60 1005.6
20260504042246 55 0 0.0 0.0 0.00 0.00 0.00 60 1005.6
20260504042146 55 0 0.0 0.0 0.00 0.00 0.00 60 1005.6
20260504042046 55 0 0.0 0.0 0.00 0.00 0.00 60 1005.6
20260504041946 55 0 0.0 0.0 0.00 0.00 0.00 60 1005.6
20260504041846 55 0 0.0 0.0 0.00 0.00 0.00 60 1005.6
20260504041746 55 0 0.0 0.0 0.00 0.00 0.00 60 1005.7
20260504041646 55 0 0.0 0.0 0.00 0.00 0.00 61 1005.6
20260504041546 54 0 0.0 0.0 0.00 0.00 0.00 62 1005.7
20260504041446 54 0 0.0 0.0 0.00 0.00 0.00 61 1005.7
20260504041346 54 0 0.0 0.0 0.00 0.00 0.00 61 1005.7
20260504041246 54 0 0.0 0.0 0.00 0.00 0.00 61 1005.7
20260504041146 54 0 0.0 0.0 0.00 0.00 0.00 61 1005.7
20260504041046 54 0 0.0 0.0 0.00 0.00 0.00 62 1005.7
20260504040946 54 0 0.0 0.0 0.00 0.00 0.00 62 1005.7
20260504040846 54 0 0.0 0.0 0.00 0.00 0.00 62 1005.6
20260504040746 54 0 0.0 0.0 0.00 0.00 0.00 62 1005.7
20260504040646 54 0 0.0 0.0 0.00 0.00 0.00 62 1005.7
20260504040546 54 0 0.0 0.0 0.00 0.00 0.00 62 1005.7
20260504040446 54 0 0.0 0.0 0.00 0.00 0.00 62 1005.7
20260504040346 54 0 0.0 0.0 0.00 0.00 0.00 62 1005.7
20260504040246 55 0 0.0 0.0 0.00 0.00 0.00 61 1005.7
20260504040146 54 0 0.0 0.0 0.00 0.00 0.00 61 1005.7
20260504040046 54 0 0.0 0.0 0.00 0.00 0.00 62 1005.7
20260504035946 54 0 0.0 0.0 0.00 0.00 0.00 62 1005.7
20260504035845 54 0 0.0 0.0 0.00 0.00 0.00 62 1005.7
20260504035745 53 0 0.0 0.0 0.00 0.00 0.00 62 1005.7
20260504035646 54 0 0.0 0.0 0.00 0.00 0.00 61 1005.8
20260504035546 54 0 0.0 0.0 0.00 0.00 0.00 61 1005.7
20260504035445 54 0 0.0 0.0 0.00 0.00 0.00 61 1005.7
20260504035345 54 0 0.0 0.0 0.00 0.00 0.00 61 1005.7
20260504035245 54 0 0.0 0.0 0.00 0.00 0.00 61 1005.7
20260504035145 54 0 0.0 0.0 0.00 0.00 0.00 62 1005.7
20260504035045 53 0 0.0 0.0 0.00 0.00 0.00 62 1005.7
20260504034945 53 0 0.0 0.0 0.00 0.00 0.00 62 1005.7
20260504034845 54 0 0.0 0.0 0.00 0.00 0.00 62 1005.7
20260504034745 54 0 0.0 0.0 0.00 0.00 0.00 62 1005.7
20260504034645 54 0 0.0 0.0 0.00 0.00 0.00 62 1005.6
20260504034545 53 0 0.0 0.0 0.00 0.00 0.00 63 1005.7
20260504034445 53 0 0.0 0.0 0.00 0.00 0.00 64 1005.7
20260504034345 53 0 0.0 0.0 0.00 0.00 0.00 65 1005.7
20260504034245 52 0 0.0 0.0 0.00 0.00 0.00 66 1005.7
20260504034145 52 0 0.0 0.0 0.00 0.00 0.00 66 1005.7
20260504034045 52 0 0.0 0.0 0.00 0.00 0.00 65 1005.7
20260504033945 52 0 0.0 0.0 0.00 0.00 0.00 65 1005.6
20260504033845 53 0 0.0 0.0 0.00 0.00 0.00 64 1005.7
20260504033745 53 0 0.0 0.0 0.00 0.00 0.00 64 1005.8
20260504033645 53 0 0.0 0.0 0.00 0.00 0.00 63 1005.7
20260504033545 53 0 0.0 0.0 0.00 0.00 0.00 64 1005.7
20260504033445 53 0 0.0 0.0 0.00 0.00 0.00 64 1005.7
20260504033345 53 0 0.0 0.0 0.00 0.00 0.00 64 1005.7
20260504033245 53 0 0.0 0.0 0.00 0.00 0.00 63 1005.8
20260504033145 53 0 0.0 0.0 0.00 0.00 0.00 63 1005.8
20260504033045 53 0 0.0 0.0 0.00 0.00 0.00 63 1005.7
20260504032945 53 0 0.0 0.0 0.00 0.00 0.00 64 1005.7
20260504032845 53 0 0.0 0.0 0.00 0.00 0.00 63 1005.8
20260504032745 53 0 0.0 0.0 0.00 0.00 0.00 63 1005.8
20260504032645 53 0 0.0 0.0 0.00 0.00 0.00 64 1005.8
20260504032545 53 0 0.0 0.0 0.00 0.00 0.00 63 1005.8
20260504032445 53 0 0.0 0.0 0.00 0.00 0.00 63 1005.8
20260504032345 53 0 0.0 0.0 0.00 0.00 0.00 64 1005.8
20260504032245 53 0 0.0 0.0 0.00 0.00 0.00 63 1005.7
20260504032145 53 0 0.0 0.0 0.00 0.00 0.00 63 1005.7
20260504032045 53 0 0.0 0.0 0.00 0.00 0.00 63 1005.8
20260504031945 53 0 0.0 0.0 0.00 0.00 0.00 63 1005.7
20260504031845 53 0 0.0 0.0 0.00 0.00 0.00 65 1005.8
20260504031745 52 0 0.0 0.0 0.00 0.00 0.00 66 1005.8
20260504031645 52 0 0.0 0.0 0.00 0.00 0.00 65 1005.7
20260504031545 52 0 0.0 0.0 0.00 0.00 0.00 64 1005.9
20260504031445 52 0 0.0 0.0 0.00 0.00 0.00 64 1005.8
20260504031345 52 0 0.0 0.0 0.00 0.00 0.00 64 1005.9
20260504031245 52 0 0.0 0.0 0.00 0.00 0.00 65 1005.8
20260504031145 52 0 0.0 0.0 0.00 0.00 0.00 65 1005.8
20260504031045 52 0 0.0 0.0 0.00 0.00 0.00 65 1005.8
20260504030945 52 0 0.0 0.0 0.00 0.00 0.00 64 1005.8
20260504030845 53 0 0.0 0.0 0.00 0.00 0.00 64 1005.8
20260504030745 52 0 0.0 0.0 0.00 0.00 0.00 64 1005.8
20260504030645 52 0 0.0 0.0 0.00 0.00 0.00 65 1005.9
20260504030544 52 0 0.0 0.0 0.00 0.00 0.00 65 1005.8
20260504030445 51 0 0.0 0.0 0.00 0.00 0.00 66 1005.8
20260504030345 52 0 0.0 0.0 0.00 0.00 0.00 64 1005.8
20260504030244 53 0 0.0 0.0 0.00 0.00 0.00 62 1005.8
20260504030145 53 0 0.0 0.0 0.00 0.00 0.00 63 1005.8
20260504030044 53 0 0.0 0.0 0.00 0.00 0.00 62 1005.8
20260504025944 53 0 0.0 0.0 0.00 0.00 0.00 63 1005.8
20260504025844 53 0 0.0 0.0 0.00 0.00 0.00 63 1005.9
20260504025744 53 0 0.0 0.0 0.00 0.00 0.00 63 1005.9
20260504025644 53 0 0.0 0.0 0.00 0.00 0.00 63 1005.9
20260504025544 53 0 0.0 0.0 0.00 0.00 0.00 63 1005.9
20260504025444 53 0 0.0 0.0 0.00 0.00 0.00 62 1005.9
20260504025344 53 0 0.0 0.0 0.00 0.00 0.00 63 1005.9
20260504025244 53 0 0.0 0.0 0.00 0.00 0.00 63 1005.9
20260504025144 53 0 0.0 0.0 0.00 0.00 0.00 63 1005.9
20260504025044 53 0 0.0 0.0 0.00 0.00 0.00 63 1005.9
20260504024944 53 0 0.0 0.0 0.00 0.00 0.00 63 1006.0
20260504024844 53 0 0.0 0.0 0.00 0.00 0.00 63 1005.9
20260504024744 52 0 0.0 0.0 0.00 0.00 0.00 63 1005.9
20260504024644 52 0 0.0 0.0 0.00 0.00 0.00 63 1005.9
20260504024544 53 0 0.0 0.0 0.00 0.00 0.00 62 1005.9
20260504024444 52 0 0.0 0.0 0.00 0.00 0.00 63 1005.9
20260504024344 52 0 0.0 0.0 0.00 0.00 0.00 64 1006.0
20260504024244 52 0 0.0 0.0 0.00 0.00 0.00 64 1006.0
20260504024144 51 0 0.0 0.0 0.00 0.00 0.00 65 1006.0
20260504024044 51 0 0.0 0.0 0.00 0.00 0.00 65 1006.0
20260504023944 51 0 0.0 0.0 0.00 0.00 0.00 64 1006.0
20260504023844 52 0 0.0 0.0 0.00 0.00 0.00 63 1006.0
20260504023744 52 0 0.0 0.0 0.00 0.00 0.00 63 1006.0
20260504023644 53 0 0.0 0.0 0.00 0.00 0.00 63 1006.0
20260504023544 53 0 0.0 0.0 0.00 0.00 0.00 63 1006.0
20260504023444 52 0 0.0 0.0 0.00 0.00 0.00 63 1006.0
20260504023344 52 0 0.0 0.0 0.00 0.00 0.00 63 1005.9
20260504023244 52 0 0.0 0.0 0.00 0.00 0.00 63 1006.0
20260504023144 52 0 0.0 0.0 0.00 0.00 0.00 63 1006.1
20260504023044 53 0 0.0 0.0 0.00 0.00 0.00 63 1006.1
20260504022944 52 0 0.0 0.0 0.00 0.00 0.00 63 1006.0
20260504022844 52 0 0.0 0.0 0.00 0.00 0.00 63 1006.0
20260504022744 52 0 0.0 0.0 0.00 0.00 0.00 63 1006.0
20260504022644 52 0 0.0 0.0 0.00 0.00 0.00 64 1006.0
20260504022544 52 0 0.0 0.0 0.00 0.00 0.00 63 1006.0
20260504022444 52 0 0.0 0.0 0.00 0.00 0.00 64 1006.0
20260504022344 52 0 0.0 0.0 0.00 0.00 0.00 64 1006.0
20260504022244 52 0 0.0 0.0 0.00 0.00 0.00 64 1006.0
20260504022144 52 0 0.0 0.0 0.00 0.00 0.00 64 1006.0
20260504022044 51 0 0.0 0.0 0.00 0.00 0.00 65 1006.0
20260504021944 51 0 0.0 0.0 0.00 0.00 0.00 66 1006.0
20260504021844 50 0 0.0 0.0 0.00 0.00 0.00 67 1006.0
20260504021744 50 0 0.0 0.0 0.00 0.00 0.00 68 1006.1
20260504021644 49 0 0.0 0.0 0.00 0.00 0.00 68 1006.1
20260504021544 51 0 0.0 0.0 0.00 0.00 0.00 67 1006.1
20260504021444 50 0 0.0 0.0 0.00 0.00 0.00 68 1006.1
20260504021344 50 0 0.0 0.0 0.00 0.00 0.00 66 1006.1
20260504021244 51 0 0.0 0.0 0.00 0.00 0.00 66 1006.1
20260504021144 51 0 0.0 0.0 0.00 0.00 0.00 66 1006.1
20260504021044 51 0 0.0 0.0 0.00 0.00 0.00 66 1006.1
20260504020944 51 0 0.0 0.0 0.00 0.00 0.00 65 1006.1
20260504020844 52 0 0.0 0.0 0.00 0.00 0.00 64 1006.1
20260504020744 51 0 0.0 0.0 0.00 0.00 0.00 64 1006.1
20260504020644 52 0 0.0 0.0 0.00 0.00 0.00 63 1006.0
20260504020544 52 0 0.0 0.0 0.00 0.00 0.00 63 1006.1
20260504020444 52 0 0.0 0.0 0.00 0.00 0.00 63 1006.0
20260504020344 52 0 0.0 0.0 0.00 0.00 0.00 64 1006.0
20260504020244 52 0 0.0 0.0 0.00 0.00 0.00 64 1006.1
20260504020143 51 0 0.0 0.0 0.00 0.00 0.00 64 1006.1
20260504020043 51 0 0.0 0.0 0.00 0.00 0.00 64 1006.2
20260504015944 51 0 0.0 0.0 0.00 0.00 0.00 65 1006.1
20260504015843 51 0 0.0 0.0 0.00 0.00 0.00 66 1006.1
20260504015743 50 0 0.0 0.0 0.00 0.00 0.00 68 1006.1
20260504015643 50 0 0.0 0.0 0.00 0.00 0.00 68 1006.1
20260504015544 50 0 0.0 0.0 0.00 0.00 0.00 67 1006.2
20260504015443 50 0 0.0 0.0 0.00 0.00 0.00 67 1006.2
20260504015343 51 0 0.0 0.0 0.00 0.00 0.00 66 1006.1
20260504015243 51 0 0.0 0.0 0.00 0.00 0.00 66 1006.2
20260504015143 50 0 0.0 0.0 0.00 0.00 0.00 68 1006.2
20260504015043 50 0 0.0 0.0 0.00 0.00 0.00 68 1006.2
20260504014943 51 0 0.0 0.0 0.00 0.00 0.00 66 1006.1
20260504014843 50 0 0.0 0.0 0.00 0.00 0.00 66 1006.2
20260504014743 51 0 0.0 0.0 0.00 0.00 0.00 65 1006.2
20260504014643 51 0 0.0 0.0 0.00 0.00 0.00 65 1006.2
20260504014543 51 0 0.0 0.0 0.00 0.00 0.00 66 1006.2
20260504014443 51 0 0.0 0.0 0.00 0.00 0.00 66 1006.1
20260504014343 51 0 0.0 0.0 0.00 0.00 0.00 65 1006.2
20260504014243 51 0 0.0 0.0 0.00 0.00 0.00 66 1006.2
20260504014143 50 0 0.0 0.0 0.00 0.00 0.00 66 1006.2
20260504014043 51 0 0.0 0.0 0.00 0.00 0.00 66 1006.2
20260504013943 51 0 0.0 0.0 0.00 0.00 0.00 66 1006.3
20260504013843 50 0 0.0 0.0 0.00 0.00 0.00 67 1006.2
20260504013743 50 0 0.0 0.0 0.00 0.00 0.00 67 1006.3
20260504013643 50 0 0.0 0.0 0.00 0.00 0.00 65 1006.3
20260504013543 51 0 0.0 0.0 0.00 0.00 0.00 64 1006.3
20260504013443 52 0 0.0 0.0 0.00 0.00 0.00 63 1006.3
20260504013343 51 0 0.0 0.0 0.00 0.00 0.00 63 1006.4
20260504013243 52 0 0.0 0.0 0.00 0.00 0.00 62 1006.3
20260504013143 52 0 0.0 0.0 0.00 0.00 0.00 62 1006.4
20260504013043 52 0 0.0 0.0 0.00 0.00 0.00 63 1006.4
20260504012943 52 0 0.0 0.0 0.00 0.00 0.00 63 1006.4
20260504012843 52 0 0.0 0.0 0.00 0.00 0.00 62 1006.4
20260504012743 52 0 0.0 0.0 0.00 0.00 0.00 61 1006.4
20260504012643 53 0 0.0 0.0 0.00 0.00 0.00 61 1006.4
20260504012543 53 0 0.0 0.0 0.00 0.00 0.00 61 1006.3
20260504012443 52 0 0.0 0.0 0.00 0.00 0.00 62 1006.4
20260504012343 52 0 0.0 0.0 0.00 0.00 0.00 62 1006.4
20260504012243 53 0 0.0 0.0 0.00 0.00 0.00 61 1006.3
20260504012143 52 0 0.0 0.0 0.00 0.00 0.00 62 1006.4
20260504012043 52 0 0.0 0.0 0.00 0.00 0.00 62 1006.4
20260504011943 53 0 0.0 0.0 0.00 0.00 0.00 61 1006.5
20260504011843 52 0 0.0 0.0 0.00 0.00 0.00 62 1006.5
20260504011743 52 0 0.0 0.0 0.00 0.00 0.00 62 1006.4
20260504011643 53 0 0.0 0.0 0.00 0.00 0.00 61 1006.4
20260504011543 53 0 0.0 0.0 0.00 0.00 0.00 61 1006.4
20260504011443 53 0 0.0 0.0 0.00 0.00 0.00 62 1006.5
20260504011342 53 0 0.0 0.0 0.00 0.00 0.00 61 1006.4
20260504011243 53 0 0.0 0.0 0.00 0.00 0.00 62 1006.4
20260504011143 52 0 0.0 0.0 0.00 0.00 0.00 62 1006.5
20260504011042 53 0 0.0 0.0 0.00 0.00 0.00 62 1006.5
20260504010942 52 0 0.0 0.0 0.00 0.00 0.00 62 1006.5
20260504010842 52 0 0.0 0.0 0.00 0.00 0.00 63 1006.5
20260504010743 52 0 0.0 0.0 0.00 0.00 0.00 63 1006.5
20260504010642 52 0 0.0 0.0 0.00 0.00 0.00 62 1006.5
20260504010542 53 0 0.0 0.0 0.00 0.00 0.00 62 1006.5
20260504010442 52 0 0.0 0.0 0.00 0.00 0.00 62 1006.5
20260504010342 52 0 0.0 0.0 0.00 0.00 0.00 62 1006.5
20260504010242 52 0 0.0 0.0 0.00 0.00 0.00 63 1006.5
20260504010142 52 0 0.0 0.0 0.00 0.00 0.00 62 1006.5
20260504010042 52 0 0.0 0.0 0.00 0.00 0.00 62 1006.5
20260504005942 52 0 0.0 0.0 0.00 0.00 0.00 62 1006.5
20260504005842 52 0 0.0 0.0 0.00 0.00 0.00 62 1006.6
20260504005742 52 0 0.0 0.0 0.00 0.00 0.00 62 1006.5
20260504005642 52 0 0.0 0.0 0.00 0.00 0.00 62 1006.6
20260504005542 52 0 0.0 0.0 0.00 0.00 0.00 63 1006.6
20260504005442 52 0 0.0 0.0 0.00 0.00 0.00 63 1006.6
20260504005342 51 0 0.0 0.0 0.00 0.00 0.00 64 1006.5
20260504005242 52 0 0.0 0.0 0.00 0.00 0.00 63 1006.5
20260504005142 52 0 0.0 0.0 0.00 0.00 0.00 63 1006.6
20260504005042 52 0 0.0 0.0 0.00 0.00 0.00 63 1006.5
20260504004942 52 0 0.0 0.0 0.00 0.00 0.00 64 1006.5
20260504004842 52 0 0.0 0.0 0.00 0.00 0.00 64 1006.5
20260504004742 52 0 0.0 0.0 0.00 0.00 0.00 64 1006.5
20260504004642 52 0 0.0 0.0 0.00 0.00 0.00 65 1006.6
20260504004542 52 0 0.0 0.0 0.00 0.00 0.00 65 1006.6
20260504004442 51 0 0.0 0.0 0.00 0.00 0.00 65 1006.5
20260504004342 51 0 0.0 0.0 0.00 0.00 0.00 65 1006.5
20260504004242 51 0 0.0 0.0 0.00 0.00 0.00 66 1006.6
20260504004142 51 0 0.0 0.0 0.00 0.00 0.00 66 1006.6
20260504004042 51 0 0.0 0.0 0.00 0.00 0.00 66 1006.6
20260504003942 51 0 0.0 0.0 0.00 0.00 0.00 65 1006.6
20260504003842 51 0 0.0 0.0 0.00 0.00 0.00 65 1006.6
20260504003742 51 0 0.0 0.0 0.00 0.00 0.00 65 1006.6
20260504003642 51 0 0.0 0.0 0.00 0.00 0.00 65 1006.6
20260504003542 51 0 0.0 0.0 0.00 0.00 0.00 64 1006.7
20260504003442 52 0 0.0 0.0 0.00 0.00 0.00 63 1006.7
20260504003342 52 0 0.0 0.0 0.00 0.00 0.00 63 1006.7
20260504003242 52 0 0.0 0.0 0.00 0.00 0.00 63 1006.7
20260504003142 52 0 0.0 0.0 0.00 0.00 0.00 62 1006.7
20260504003042 52 0 0.0 0.0 0.00 0.00 0.00 63 1006.7
20260504002942 52 0 0.0 0.0 0.00 0.00 0.00 62 1006.7
20260504002842 52 0 0.0 0.0 0.00 0.00 0.00 62 1006.7
20260504002742 52 0 0.0 0.0 0.00 0.00 0.00 62 1006.8
20260504002642 52 0 0.0 0.0 0.00 0.00 0.00 62 1006.7
20260504002542 52 0 0.0 0.0 0.00 0.00 0.00 62 1006.8
20260504002442 52 0 0.0 0.0 0.00 0.00 0.00 62 1006.7
20260504002342 52 0 0.0 0.0 0.00 0.00 0.00 62 1006.8
20260504002242 51 0 0.0 0.0 0.00 0.00 0.00 63 1006.8
20260504002142 52 0 0.0 0.0 0.00 0.00 0.00 63 1006.8
20260504002042 51 0 0.0 0.0 0.00 0.00 0.00 64 1006.8
20260504001942 51 0 0.0 0.0 0.00 0.00 0.00 64 1006.8
20260504001842 50 0 0.0 0.0 0.00 0.00 0.00 65 1006.9
20260504001742 50 0 0.0 0.0 0.00 0.00 0.00 65 1006.8
20260504001642 51 0 0.0 0.0 0.00 0.00 0.00 64 1006.8
20260504001541 52 0 0.0 0.0 0.00 0.00 0.00 61 1006.9
20260504001442 52 0 0.0 0.0 0.00 0.00 0.00 62 1006.9
20260504001342 52 0 0.0 0.0 0.00 0.00 0.00 62 1006.9
20260504001241 52 0 0.0 0.0 0.00 0.00 0.00 62 1006.9
20260504001141 53 0 0.0 0.0 0.00 0.00 0.00 61 1006.8
20260504001041 52 0 0.0 0.0 0.00 0.00 0.00 62 1006.7
20260504000942 53 0 0.0 0.0 0.00 0.00 0.00 61 1006.8
20260504000841 53 0 0.0 0.0 0.00 0.00 0.00 61 1006.7
20260504000741 52 0 0.0 0.0 0.00 0.00 0.00 62 1006.8
20260504000641 52 0 0.0 0.0 0.00 0.00 0.00 62 1006.8
20260504000542 52 0 0.0 0.0 0.00 0.00 0.00 62 1006.9
20260504000441 52 0 0.0 0.0 0.00 0.00 0.00 62 1006.8
20260504000341 52 0 0.0 0.0 0.00 0.00 0.00 62 1006.8
20260504000241 53 0 0.0 0.0 0.00 0.00 0.00 62 1006.9
20260504000141 53 0 0.0 0.0 0.00 0.00 0.00 62 1006.8
20260504000041 52 0 0.0 0.0 0.00 0.00 0.00 62 1006.9
20260503235941 52 0 0.0 0.0 0.00 0.00 0.00 62 1006.8
20260503235841 52 0 0.0 0.0 0.00 0.00 0.00 62 1006.9
20260503235741 52 0 0.0 0.0 0.00 0.00 0.00 62 1006.9
20260503235641 52 0 0.0 0.0 0.00 0.00 0.00 63 1006.9
20260503235541 52 0 0.0 0.0 0.00 0.00 0.00 62 1006.9
20260503235441 52 0 0.0 0.0 0.00 0.00 0.00 62 1006.9
20260503235341 52 0 0.0 0.0 0.00 0.00 0.00 63 1006.9
20260503235241 52 0 0.0 0.0 0.00 0.00 0.00 63 1007.0
20260503235141 52 0 0.0 0.0 0.00 0.00 0.00 63 1007.0
20260503235041 52 0 0.0 0.0 0.00 0.00 0.00 63 1007.0
20260503234941 52 0 0.0 0.0 0.00 0.00 0.00 63 1007.0
20260503234841 52 0 0.0 0.0 0.00 0.00 0.00 63 1006.9
20260503234741 51 0 0.0 0.0 0.00 0.00 0.00 63 1007.0
20260503234641 51 0 0.0 0.0 0.00 0.00 0.00 64 1007.0
20260503234541 51 0 0.0 0.0 0.00 0.00 0.00 64 1007.0
20260503234441 50 0 0.0 0.0 0.00 0.00 0.00 64 1007.0
20260503234341 50 0 0.0 0.0 0.00 0.00 0.00 64 1007.0
20260503234241 51 0 0.0 0.0 0.00 0.00 0.00 63 1006.9
20260503234141 51 0 0.0 0.0 0.00 0.00 0.00 61 1007.0
20260503234041 52 0 0.0 0.0 0.00 0.00 0.00 60 1007.0
20260503233941 52 0 0.0 0.0 0.00 0.00 0.00 60 1007.0
20260503233841 52 0 0.0 0.0 0.00 0.00 0.00 61 1007.0
20260503233741 52 0 0.0 0.0 0.00 0.00 0.00 61 1006.9
20260503233641 51 0 0.0 0.0 0.00 0.00 0.00 61 1006.9
20260503233541 51 0 0.0 0.0 0.00 0.00 0.00 61 1006.9
20260503233441 51 0 0.0 0.0 0.00 0.00 0.00 61 1007.0
20260503233341 51 0 0.0 0.0 0.00 0.00 0.00 61 1006.9
20260503233241 51 0 0.0 0.0 0.00 0.00 0.00 62 1007.0
20260503233141 51 0 0.0 0.0 0.00 0.00 0.00 62 1007.1
20260503233041 51 0 0.0 0.0 0.00 0.00 0.00 61 1007.0
20260503232941 51 0 0.0 0.0 0.00 0.00 0.00 61 1007.0
20260503232841 52 0 0.0 0.0 0.00 0.00 0.00 61 1007.0
20260503232741 52 0 0.0 0.0 0.00 0.00 0.00 60 1007.0
20260503232641 52 0 0.0 0.0 0.00 0.00 0.00 60 1006.9
20260503232541 52 0 0.0 0.0 0.00 0.00 0.00 60 1007.0
20260503232441 52 0 0.0 0.0 0.00 0.00 0.00 60 1007.0
20260503232341 52 0 0.0 0.0 0.00 0.00 0.00 61 1007.0
20260503232241 52 0 0.0 0.0 0.00 0.00 0.00 61 1007.0
20260503232141 52 0 0.0 0.0 0.00 0.00 0.00 61 1007.0
20260503232041 52 0 0.0 0.0 0.00 0.00 0.00 61 1006.9
20260503231941 52 0 0.0 0.0 0.00 0.00 0.00 61 1007.0
20260503231841 52 0 0.0 0.0 0.00 0.00 0.00 60 1007.0
20260503231741 52 0 0.0 0.0 0.00 0.00 0.00 59 1006.9
20260503231641 52 0 0.0 0.0 0.00 0.00 0.00 59 1006.9
20260503231541 52 0 0.0 0.0 0.00 0.00 0.00 59 1007.0
20260503231441 52 0 0.0 0.0 0.00 0.00 0.00 59 1007.0
20260503231341 52 0 0.0 0.0 0.00 0.00 0.00 59 1007.0
20260503231241 52 0 0.0 0.0 0.00 0.00 0.00 59 1007.0
20260503231141 52 0 0.0 0.0 0.00 0.00 0.00 59 1007.0
20260503231041 52 0 0.0 0.0 0.00 0.00 0.00 59 1007.0
20260503230941 52 0 0.0 0.0 0.00 0.00 0.00 59 1007.1
20260503230841 52 0 0.0 0.0 0.00 0.00 0.00 59 1007.1
20260503230741 53 0 0.0 0.0 0.00 0.00 0.00 59 1007.1
20260503230641 52 0 0.0 0.0 0.00 0.00 0.00 59 1007.1
20260503230541 52 0 0.0 0.0 0.00 0.00 0.00 59 1007.0
20260503230441 52 0 0.0 0.0 0.00 0.00 0.00 59 1007.1
20260503230341 52 0 0.0 0.0 0.00 0.00 0.00 60 1007.0
20260503230241 52 0 0.0 0.0 0.00 0.00 0.00 60 1007.1
20260503230141 52 0 0.0 0.0 0.00 0.00 0.00 60 1007.1
20260503230041 53 0 0.0 0.0 0.00 0.00 0.00 59 1007.0
20260503225941 52 0 0.0 0.0 0.00 0.00 0.00 60 1007.0
20260503225841 52 0 0.0 0.0 0.00 0.00 0.00 60 1007.1
20260503225740 53 0 0.0 0.0 0.00 0.00 0.00 59 1007.0
20260503225640 52 0 0.0 0.0 0.00 0.00 0.00 59 1007.0
20260503225540 52 0 0.0 0.0 0.00 0.00 0.00 59 1007.1
20260503225440 52 0 0.0 0.0 0.00 0.00 0.00 59 1007.1
20260503225340 53 0 0.0 0.0 0.00 0.00 0.00 59 1007.1
20260503225240 53 0 0.0 0.0 0.00 0.00 0.00 59 1007.0
20260503225140 52 0 0.0 0.0 0.00 0.00 0.00 58 1007.1
20260503225040 52 0 0.0 0.0 0.00 0.00 0.00 58 1007.1
20260503224940 52 0 0.0 0.0 0.00 0.00 0.00 58 1007.1
20260503224840 52 0 0.0 0.0 0.00 0.00 0.00 58 1007.1
20260503224740 52 0 0.0 0.0 0.00 0.00 0.00 58 1007.2
20260503224640 53 0 0.0 0.0 0.00 0.00 0.00 58 1007.1
20260503224540 52 0 0.0 0.0 0.00 0.00 0.00 58 1007.1
20260503224440 52 0 0.0 0.0 0.00 0.00 0.00 58 1007.1
20260503224340 52 0 0.0 0.0 0.00 0.00 0.00 58 1007.1
20260503224240 53 0 0.0 0.0 0.00 0.00 0.00 57 1007.1
20260503224140 52 0 0.0 0.0 0.00 0.00 0.00 57 1007.1
20260503224040 52 0 0.0 0.0 0.00 0.00 0.00 57 1007.0
20260503223940 52 0 0.0 0.0 0.00 0.00 0.00 58 1007.1
20260503223840 52 0 0.0 0.0 0.00 0.00 0.00 58 1007.2
20260503223740 52 0 0.0 0.0 0.00 0.00 0.00 58 1007.1
20260503223640 51 0 0.0 0.0 0.00 0.00 0.00 59 1007.1
20260503223540 52 0 0.0 0.0 0.00 0.00 0.00 58 1007.1
20260503223440 52 0 0.0 0.0 0.00 0.00 0.00 58 1007.1
20260503223340 52 0 0.0 0.0 0.00 0.00 0.00 57 1007.1
20260503223240 53 0 0.0 0.0 0.00 0.00 0.00 56 1007.1
20260503223140 53 0 0.0 0.0 0.00 0.00 0.00 57 1007.1
20260503223040 52 0 0.0 0.0 0.00 0.00 0.00 57 1007.1
20260503222940 52 0 0.0 0.0 0.00 0.00 0.00 57 1007.1
20260503222840 52 0 0.0 0.0 0.00 0.00 0.00 58 1007.1
20260503222740 53 0 0.0 0.0 0.00 0.00 0.00 57 1007.1
20260503222640 53 0 0.0 0.0 0.00 0.00 0.00 57 1007.0
20260503222540 53 0 0.0 0.0 0.00 0.00 0.00 56 1007.0
20260503222440 53 0 0.0 0.0 0.00 0.00 0.00 57 1007.0
20260503222340 53 0 0.0 0.0 0.00 0.00 0.00 56 1007.0
20260503222240 53 0 0.0 0.0 0.00 0.00 0.00 56 1007.0
20260503222140 53 0 0.0 0.0 0.00 0.00 0.00 56 1007.0
20260503222040 53 0 0.0 0.0 0.00 0.00 0.00 56 1006.9
20260503221940 53 0 0.0 0.0 0.00 0.00 0.00 56 1007.0
20260503221840 53 0 0.0 0.0 0.00 0.00 0.00 56 1007.0
20260503221740 53 0 0.0 0.0 0.00 0.00 0.00 56 1006.9
20260503221640 53 0 0.0 0.0 0.00 0.00 0.00 56 1006.8
20260503221540 53 0 0.0 0.0 0.00 0.00 0.00 56 1006.9
20260503221440 53 0 0.0 0.0 0.00 0.00 0.00 57 1006.9
20260503221340 53 0 0.0 0.0 0.00 0.00 0.00 56 1006.9
20260503221240 53 0 0.0 0.0 0.00 0.00 0.00 56 1006.9
20260503221140 53 0 0.0 0.0 0.00 0.00 0.00 57 1006.9
20260503221040 53 0 0.0 0.0 0.00 0.00 0.00 56 1006.9
20260503220940 53 0 0.0 0.0 0.00 0.00 0.00 55 1006.9
20260503220840 53 0 0.0 0.0 0.00 0.00 0.00 56 1006.9
20260503220740 53 0 0.0 0.0 0.00 0.00 0.00 57 1006.9
20260503220640 52 0 0.0 0.0 0.00 0.00 0.00 57 1006.9
20260503220540 54 0 0.0 0.0 0.00 0.00 0.00 56 1006.9
20260503220440 53 0 0.0 0.0 0.00 0.00 0.00 56 1007.0
20260503220340 54 0 0.0 0.0 0.00 0.00 0.00 54 1006.9
20260503220240 54 0 0.0 0.0 0.00 0.00 0.00 55 1006.9
20260503220140 54 0 0.0 0.0 0.00 0.00 0.00 55 1006.9
20260503220040 54 0 0.0 0.0 0.00 0.00 0.00 56 1006.9
20260503215940 54 0 0.0 0.0 0.00 0.00 0.00 56 1006.9
20260503215840 54 0 0.0 0.0 0.00 0.00 0.00 56 1006.9
20260503215740 53 0 0.0 0.0 0.00 0.00 0.00 57 1006.9
20260503215640 53 0 0.0 0.0 0.00 0.00 0.00 57 1007.0
20260503215540 53 0 0.0 0.0 0.00 0.00 0.00 57 1007.0
20260503215440 53 0 0.0 0.0 0.00 0.00 0.00 57 1007.0
20260503215340 53 0 0.0 0.0 0.00 0.00 0.00 57 1006.9
20260503215240 53 0 0.0 0.0 0.00 0.00 0.00 57 1006.9
20260503215140 53 0 0.0 0.0 0.00 0.00 0.00 58 1007.0
20260503215040 53 0 0.0 0.0 0.00 0.00 0.00 58 1006.9
20260503214940 53 0 0.0 0.0 0.00 0.00 0.00 58 1006.9
20260503214840 53 0 0.0 0.0 0.00 0.00 0.00 58 1006.9
20260503214740 53 0 0.0 0.0 0.00 0.00 0.00 58 1006.9
20260503214640 53 0 0.0 0.0 0.00 0.00 0.00 58 1007.0
20260503214540 53 0 0.0 0.0 0.00 0.00 0.00 58 1007.0
20260503214440 53 0 0.0 0.0 0.00 0.00 0.00 57 1006.9
20260503214340 53 0 0.0 0.0 0.00 0.00 0.00 56 1007.0
20260503214240 54 0 0.0 0.0 0.00 0.00 0.00 55 1006.9
20260503214140 54 0 0.0 0.0 0.00 0.00 0.00 54 1007.0
20260503214040 54 0 0.0 0.0 0.00 0.00 0.00 53 1006.9
20260503213940 54 0 0.0 0.0 0.00 0.00 0.00 53 1007.0
20260503213840 54 0 0.0 0.0 0.00 0.00 0.00 53 1007.0
20260503213740 54 0 0.0 0.0 0.00 0.00 0.00 53 1007.0
20260503213640 54 0 0.0 0.0 0.00 0.00 0.00 53 1006.9
20260503213540 54 0 0.0 0.0 0.00 0.00 0.00 54 1007.0
20260503213440 54 0 0.0 0.0 0.00 0.00 0.00 53 1007.0
20260503213340 54 0 0.0 0.0 0.00 0.00 0.00 54 1007.0
20260503213240 53 0 0.0 0.0 0.00 0.00 0.00 55 1007.0
20260503213139 53 0 0.0 0.0 0.00 0.00 0.00 55 1007.0
20260503213040 53 0 0.0 0.0 0.00 0.00 0.00 54 1007.0
20260503212939 54 0 0.0 0.0 0.00 0.00 0.00 54 1007.0
20260503212839 53 0 0.0 0.0 0.00 0.00 0.00 55 1007.0
20260503212739 54 0 0.0 0.0 0.00 0.00 0.00 53 1007.0
20260503212639 54 0 0.0 0.0 0.00 0.00 0.00 53 1007.0
20260503212539 54 0 0.0 0.0 0.00 0.00 0.00 53 1006.9
20260503212440 55 0 0.0 0.0 0.00 0.00 0.00 52 1007.0
20260503212339 54 0 0.0 0.0 0.00 0.00 0.00 53 1007.0
20260503212239 54 0 0.0 0.0 0.00 0.00 0.00 53 1007.0
20260503212140 55 0 0.0 0.0 0.00 0.00 0.00 52 1007.0
20260503212039 55 0 0.0 0.0 0.00 0.00 0.00 53 1007.0
20260503211939 54 0 0.0 0.0 0.00 0.00 0.00 53 1007.0
20260503211839 55 0 0.0 0.0 0.00 0.00 0.00 53 1007.0
20260503211739 54 0 0.0 0.0 0.00 0.00 0.00 53 1007.0
20260503211639 54 0 0.0 0.0 0.00 0.00 0.00 53 1007.0
20260503211539 54 0 0.0 0.0 0.00 0.00 0.00 53 1007.0
20260503211439 55 0 0.0 0.0 0.00 0.00 0.00 52 1006.9
20260503211339 55 0 0.0 0.0 0.00 0.00 0.00 51 1007.0
20260503211239 55 0 0.0 0.0 0.00 0.00 0.00 52 1007.0
20260503211139 55 0 0.0 0.0 0.00 0.00 0.00 52 1007.1
20260503211039 55 0 0.0 0.0 0.00 0.00 0.00 52 1007.0
20260503210939 54 0 0.0 0.0 0.00 0.00 0.00 53 1007.0
20260503210839 55 0 0.0 0.0 0.00 0.00 0.00 52 1007.0
20260503210739 55 0 0.0 0.0 0.00 0.00 0.00 51 1007.0
20260503210639 55 0 0.0 0.0 0.00 0.00 0.00 51 1007.1
20260503210539 55 0 0.0 0.0 0.00 0.00 0.00 52 1007.0
20260503210439 55 0 0.0 0.0 0.00 0.00 0.00 52 1007.1
20260503210339 55 0 0.0 0.0 0.00 0.00 0.00 53 1007.1
20260503210239 54 0 0.0 0.0 0.00 0.00 0.00 53 1007.2
20260503210139 54 0 0.0 0.0 0.00 0.00 0.00 53 1007.2
20260503210039 54 0 0.0 0.0 0.00 0.00 0.00 53 1007.2
20260503205939 54 0 0.0 0.0 0.00 0.00 0.00 54 1007.3
20260503205839 54 0 0.0 0.0 0.00 0.00 0.00 53 1007.3
20260503205739 54 0 0.0 0.0 0.00 0.00 0.00 53 1007.2
20260503205639 54 0 0.0 0.0 0.00 0.00 0.00 53 1007.3
20260503205539 54 0 0.0 0.0 0.00 0.00 0.00 53 1007.2
20260503205439 54 0 0.0 0.0 0.00 0.00 0.00 52 1007.2
20260503205339 54 0 0.0 0.0 0.00 0.00 0.00 53 1007.3
20260503205239 55 0 0.0 0.0 0.00 0.00 0.00 52 1007.2
20260503205139 55 0 0.0 0.0 0.00 0.00 0.00 52 1007.2
20260503205039 54 0 0.0 0.0 0.00 0.00 0.00 53 1007.2
20260503204939 53 0 0.0 0.0 0.00 0.00 0.00 54 1007.2
20260503204839 53 0 0.0 0.0 0.00 0.00 0.00 54 1007.2
20260503204739 53 0 0.0 0.0 0.00 0.00 0.00 54 1007.2
20260503204639 54 0 0.0 0.0 0.00 0.00 0.00 52 1007.2
20260503204539 55 0 0.0 0.0 0.00 0.00 0.00 52 1007.2
20260503204439 54 0 0.0 0.0 0.00 0.00 0.00 53 1007.2
20260503204339 54 0 0.0 0.0 0.00 0.00 0.00 53 1007.3
20260503204239 54 0 0.0 0.0 0.00 0.00 0.00 53 1007.3
20260503204139 54 0 0.0 0.0 0.00 0.00 0.00 53 1007.3
20260503204039 53 0 0.0 0.0 0.00 0.00 0.00 54 1007.3
20260503203939 53 0 0.0 0.0 0.00 0.00 0.00 54 1007.4
20260503203839 53 0 0.0 0.0 0.00 0.00 0.00 55 1007.3
20260503203739 53 0 0.0 0.0 0.00 0.00 0.00 55 1007.3
20260503203639 53 0 0.0 0.0 0.00 0.00 0.00 54 1007.3
20260503203539 54 0 0.0 0.0 0.00 0.00 0.00 53 1007.3
20260503203439 54 0 0.0 0.0 0.00 0.00 0.00 53 1007.3
20260503203339 54 0 0.0 0.0 0.00 0.00 0.00 53 1007.3
20260503203239 54 0 0.0 0.0 0.00 0.00 0.00 53 1007.3
20260503203139 53 0 0.0 0.0 0.00 0.00 0.00 54 1007.2
20260503203039 54 0 0.0 0.0 0.00 0.00 0.00 53 1007.3
20260503202939 54 0 0.0 0.0 0.00 0.00 0.00 53 1007.3
20260503202839 54 0 0.0 0.0 0.00 0.00 0.00 53 1007.3
20260503202739 54 0 0.0 0.0 0.00 0.00 0.00 54 1007.3
20260503202639 54 0 0.0 0.0 0.00 0.00 0.00 54 1007.2
20260503202539 54 0 0.0 0.0 0.00 0.00 0.00 54 1007.2
20260503202439 54 0 0.0 0.0 0.00 0.00 0.00 54 1007.3
20260503202339 54 0 0.0 0.0 0.00 0.00 0.00 54 1007.4
20260503202239 54 0 0.0 0.0 0.00 0.00 0.00 55 1007.3
20260503202139 54 0 0.0 0.0 0.00 0.00 0.00 54 1007.3
20260503202039 54 0 0.0 0.0 0.00 0.00 0.00 54 1007.3
20260503201939 54 0 0.0 0.0 0.00 0.00 0.00 55 1007.3
20260503201839 53 0 0.0 0.0 0.00 0.00 0.00 55 1007.3
20260503201739 54 0 0.0 0.0 0.00 0.00 0.00 54 1007.3
20260503201639 54 0 0.0 0.0 0.00 0.00 0.00 55 1007.4
20260503201539 53 0 0.0 0.0 0.00 0.00 0.00 55 1007.3
20260503201439 53 0 0.0 0.0 0.00 0.00 0.00 55 1007.4
20260503201339 54 0 0.0 0.0 0.00 0.00 0.00 54 1007.4
20260503201239 54 0 0.0 0.0 0.00 0.00 0.00 55 1007.4
20260503201139 53 0 0.0 0.0 0.00 0.00 0.00 55 1007.4
20260503201039 54 0 0.0 0.0 0.00 0.00 0.00 54 1007.3
20260503200939 54 0 0.0 0.0 0.00 0.00 0.00 54 1007.2
20260503200839 54 0 0.0 0.0 0.00 0.00 0.00 54 1007.3
20260503200739 54 0 0.0 0.0 0.00 0.00 0.00 54 1007.2
20260503200639 54 0 0.0 0.0 0.00 0.00 0.00 54 1007.2
20260503200539 55 0 0.0 0.0 0.00 0.00 0.00 52 1007.2
20260503200439 55 0 0.0 0.0 0.00 0.00 0.00 52 1007.2
20260503200339 55 0 0.0 0.0 0.00 0.00 0.00 53 1007.2
20260503200239 55 0 0.0 0.0 0.00 0.00 0.00 53 1007.3
20260503200139 54 0 0.0 0.0 0.00 0.00 0.00 54 1007.3
20260503200039 54 0 0.0 0.0 0.00 0.00 0.00 53 1007.2
20260503195939 54 0 0.0 0.0 0.00 0.00 0.00 53 1007.2
20260503195839 54 0 0.0 0.0 0.00 0.00 0.00 54 1007.3
20260503195738 54 0 0.0 0.0 0.00 0.00 0.00 54 1007.3
20260503195638 54 0 0.0 0.0 0.00 0.00 0.00 53 1007.3
20260503195538 54 0 0.0 0.0 0.00 0.00 0.00 54 1007.3
20260503195439 54 0 0.0 0.0 0.00 0.00 0.00 54 1007.3
20260503195338 54 0 0.0 0.0 0.00 0.00 0.00 54 1007.4
20260503195238 55 0 0.0 0.0 0.00 0.00 0.00 53 1007.3
20260503195138 55 0 0.0 0.0 0.00 0.00 0.00 53 1007.3
20260503195039 54 0 0.0 0.0 0.00 0.00 0.00 54 1007.3
20260503194938 54 0 0.0 0.0 0.00 0.00 0.00 54 1007.3
20260503194838 54 0 0.0 0.0 0.00 0.00 0.00 54 1007.4
20260503194738 54 0 0.0 0.0 0.00 0.00 0.00 54 1007.3
20260503194638 54 0 0.0 0.0 0.00 0.00 0.00 54 1007.4
20260503194538 55 0 0.0 0.0 0.00 0.00 0.00 52 1007.3
20260503194438 55 0 0.0 0.0 0.00 0.00 0.00 53 1007.4
20260503194338 56 0 0.0 0.0 0.00 0.00 0.00 52 1007.3
20260503194238 56 0 0.0 0.0 0.00 0.00 0.00 51 1007.3
20260503194138 56 0 0.0 0.0 0.00 0.00 0.00 52 1007.3
20260503194038 55 0 0.0 0.0 0.00 0.00 0.00 53 1007.3
20260503193938 55 0 0.0 0.0 0.00 0.00 0.00 54 1007.3
20260503193838 54 0 0.0 0.0 0.00 0.00 0.00 54 1007.3
20260503193738 56 0 0.0 0.0 0.00 0.00 0.00 52 1007.2
20260503193638 55 0 0.0 0.0 0.00 0.00 0.00 53 1007.3
20260503193538 55 0 0.0 0.0 0.00 0.00 0.00 52 1007.2
20260503193438 55 0 0.0 0.0 0.00 0.00 0.00 52 1007.2
20260503193338 56 0 0.0 0.0 0.00 0.00 0.00 52 1007.2
20260503193238 55 0 0.0 0.0 0.00 0.00 0.00 53 1007.3
20260503193138 54 0 0.0 0.0 0.00 0.00 0.00 54 1007.2
20260503193038 55 0 0.0 0.0 0.00 0.00 0.00 53 1007.3
20260503192938 54 0 0.0 0.0 0.00 0.00 0.00 54 1007.3
20260503192838 55 0 0.0 0.0 0.00 0.00 0.00 53 1007.2
20260503192738 55 0 0.0 0.0 0.00 0.00 0.00 53 1007.3
20260503192638 55 0 0.0 0.0 0.00 0.00 0.00 53 1007.3
20260503192538 54 0 0.0 0.0 0.00 0.00 0.00 54 1007.2
20260503192438 54 0 0.0 0.0 0.00 0.00 0.00 54 1007.3
20260503192338 54 0 0.0 0.0 0.00 0.00 0.00 54 1007.2
20260503192238 54 0 0.0 0.0 0.00 0.00 0.00 53 1007.3
20260503192138 54 0 0.0 0.0 0.00 0.00 0.00 53 1007.3
20260503192038 55 0 0.0 0.0 0.00 0.00 0.00 53 1007.2
20260503191938 54 0 0.0 0.0 0.00 0.00 0.00 54 1007.3
20260503191838 54 0 0.0 0.0 0.00 0.00 0.00 53 1007.3
20260503191738 54 0 0.0 0.0 0.00 0.00 0.00 53 1007.3
20260503191638 54 0 0.0 0.0 0.00 0.00 0.00 54 1007.3
20260503191538 54 0 0.0 0.0 0.00 0.00 0.00 54 1007.3
20260503191438 54 0 0.0 0.0 0.00 0.00 0.00 54 1007.2
20260503191338 53 0 0.0 0.0 0.00 0.00 0.00 55 1007.3
20260503191238 53 0 0.0 0.0 0.00 0.00 0.00 55 1007.3
20260503191138 54 0 0.0 0.0 0.00 0.00 0.00 54 1007.3
20260503191038 54 0 0.0 0.0 0.00 0.00 0.00 54 1007.3
20260503190938 54 0 0.0 0.0 0.00 0.00 0.00 54 1007.3
20260503190838 54 0 0.0 0.0 0.00 0.00 0.00 54 1007.3
20260503190738 54 0 0.0 0.0 0.00 0.00 0.00 54 1007.3
20260503190638 54 0 0.0 0.0 0.00 0.00 0.00 53 1007.2
20260503190538 54 0 0.0 0.0 0.00 0.00 0.00 54 1007.2
20260503190438 54 0 0.0 0.0 0.00 0.00 0.00 54 1007.3
20260503190338 54 0 0.0 0.0 0.00 0.00 0.00 54 1007.3
20260503190238 54 0 0.0 0.0 0.00 0.00 0.00 53 1007.2
20260503190138 54 0 0.0 0.0 0.00 0.00 0.00 53 1007.2
20260503190038 54 0 0.0 0.0 0.00 0.00 0.00 53 1007.2
20260503185938 55 0 0.0 0.0 0.00 0.00 0.00 53 1007.2
20260503185838 55 0 0.0 0.0 0.00 0.00 0.00 52 1007.2
20260503185738 55 0 0.0 0.0 0.00 0.00 0.00 53 1007.2
20260503185638 54 0 0.0 0.0 0.00 0.00 0.00 53 1007.2
20260503185538 55 0 0.0 0.0 0.00 0.00 0.00 52 1007.1
20260503185438 55 0 0.0 0.0 0.00 0.00 0.00 52 1007.1
20260503185338 55 0 0.0 0.0 0.00 0.00 0.00 52 1007.1
20260503185238 55 0 0.0 0.0 0.00 0.00 0.00 52 1007.1
20260503185138 55 0 0.0 0.0 0.00 0.00 0.00 53 1007.1
20260503185038 54 0 0.0 0.0 0.00 0.00 0.00 53 1007.1
20260503184938 54 0 0.0 0.0 0.00 0.00 0.00 53 1007.1
20260503184838 55 0 0.0 0.0 0.00 0.00 0.00 52 1007.1
20260503184738 55 0 0.0 0.0 0.00 0.00 0.00 53 1007.2
20260503184638 54 0 0.0 0.0 0.00 0.00 0.00 53 1007.1
20260503184538 55 0 0.0 0.0 0.00 0.00 0.00 52 1007.1
20260503184438 55 0 0.0 0.0 0.00 0.00 0.00 52 1007.1
20260503184338 55 0 0.0 0.0 0.00 0.00 0.00 52 1007.0
20260503184238 55 0 0.0 0.0 0.00 0.00 0.00 52 1007.1
20260503184138 55 0 0.0 0.0 0.00 0.00 0.00 52 1007.1
20260503184038 55 0 0.0 0.0 0.00 0.00 0.00 52 1007.0
20260503183938 55 0 0.0 0.0 0.00 0.00 0.00 52 1007.1
20260503183838 55 0 0.0 0.0 0.00 0.00 0.00 52 1007.0
20260503183738 56 0 0.0 0.0 0.00 0.00 0.00 51 1007.0
20260503183638 56 0 0.0 0.0 0.00 0.00 0.00 51 1007.0
20260503183538 56 0 0.0 0.0 0.00 0.00 0.00 51 1007.1
20260503183438 56 0 0.0 0.0 0.00 0.00 0.00 51 1007.1
20260503183338 56 0 0.0 0.0 0.00 0.00 0.00 51 1007.1
20260503183238 56 0 0.0 0.0 0.00 0.00 0.00 51 1007.2
20260503183138 56 0 0.0 0.0 0.00 0.00 0.00 51 1007.2
20260503183037 56 0 0.0 0.0 0.00 0.00 0.00 52 1007.2
20260503182937 55 0 0.0 0.0 0.00 0.00 0.00 52 1007.2
20260503182837 56 0 0.0 0.0 0.00 0.00 0.00 52 1007.2
20260503182738 56 0 0.0 0.0 0.00 0.00 0.00 52 1007.2
20260503182637 56 0 0.0 0.0 0.00 0.00 0.00 52 1007.2
20260503182537 56 0 0.0 0.0 0.00 0.00 0.00 51 1007.2
20260503182437 56 0 0.0 0.0 0.00 0.00 0.00 51 1007.2
20260503182337 56 0 0.0 0.0 0.00 0.00 0.00 51 1007.2
20260503182238 56 0 0.0 0.0 0.00 0.00 0.00 52 1007.2
20260503182138 56 0 0.0 0.0 0.00 0.00 0.00 52 1007.1
20260503182038 55 0 0.0 0.0 0.00 0.00 0.00 52 1007.2
20260503181937 55 0 0.0 0.0 0.00 0.00 0.00 52 1007.3
20260503181837 55 0 0.0 0.0 0.00 0.00 0.00 52 1007.3
20260503181737 56 0 0.0 0.0 0.00 0.00 0.00 52 1007.3
20260503181637 55 0 0.0 0.0 0.00 0.00 0.00 52 1007.2
20260503181537 56 0 0.0 0.0 0.00 0.00 0.00 52 1007.2
20260503181437 55 0 0.0 0.0 0.00 0.00 0.00 52 1007.2
20260503181337 55 0 0.0 0.0 0.00 0.00 0.00 52 1007.2
20260503181237 56 0 0.0 0.0 0.00 0.00 0.00 51 1007.1
20260503181137 56 0 0.0 0.0 0.00 0.00 0.00 52 1007.1
20260503181037 56 0 0.0 0.0 0.00 0.00 0.00 52 1007.1
20260503180937 56 0 0.0 0.0 0.00 0.00 0.00 52 1007.1
20260503180837 55 0 0.0 0.0 0.00 0.00 0.00 53 1007.2
20260503180737 55 0 0.0 0.0 0.00 0.00 0.00 54 1007.1
20260503180637 55 0 0.0 0.0 0.00 0.00 0.00 53 1007.1
20260503180537 55 0 0.0 0.0 0.00 0.00 0.00 53 1007.1
20260503180437 55 0 0.0 0.0 0.00 0.00 0.00 52 1007.1
20260503180337 55 0 0.0 0.0 0.00 0.00 0.00 53 1007.0
20260503180237 55 0 0.0 0.0 0.00 0.00 0.00 52 1007.1
20260503180137 55 0 0.0 0.0 0.00 0.00 0.00 53 1007.1
20260503180037 55 0 0.0 0.0 0.00 0.00 0.00 53 1007.1
20260503175937 56 0 0.0 0.0 0.00 0.00 0.00 52 1007.0
20260503175837 55 0 0.0 0.0 0.00 0.00 0.00 53 1007.1
20260503175737 55 0 0.0 0.0 0.00 0.00 0.00 52 1007.1
20260503175637 55 0 0.0 0.0 0.00 0.00 0.00 53 1007.1
20260503175537 55 0 0.0 0.0 0.00 0.00 0.00 53 1007.0
20260503175437 56 0 0.0 0.0 0.00 0.00 0.00 51 1007.0
20260503175337 56 0 0.0 0.0 0.00 0.00 0.00 52 1007.0
20260503175237 55 0 0.0 0.0 0.00 0.00 0.00 53 1007.0
20260503175137 55 0 0.0 0.0 0.00 0.00 0.00 52 1007.0
20260503175037 55 0 0.0 0.0 0.00 0.00 0.00 53 1007.0
20260503174937 55 0 0.0 0.0 0.00 0.00 0.00 53 1007.0
20260503174837 55 0 0.0 0.0 0.00 0.00 0.00 52 1007.0
20260503174737 55 0 0.0 0.0 0.00 0.00 0.00 52 1006.9
20260503174637 55 0 0.0 0.0 0.00 0.00 0.00 53 1007.0
20260503174537 55 0 0.0 0.0 0.00 0.00 0.00 53 1007.0
20260503174437 56 0 0.0 0.0 0.00 0.00 0.00 52 1006.9
20260503174337 56 0 0.0 0.0 0.00 0.00 0.00 52 1007.0
20260503174237 56 0 0.0 0.0 0.00 0.00 0.00 52 1006.9
20260503174137 55 0 0.0 0.0 0.00 0.00 0.00 53 1007.0
20260503174037 55 0 0.0 0.0 0.00 0.00 0.00 53 1007.0
20260503173937 55 0 0.0 0.0 0.00 0.00 0.00 53 1007.0
20260503173837 55 0 0.0 0.0 0.00 0.00 0.00 53 1007.1
20260503173737 56 0 0.0 0.0 0.00 0.00 0.00 52 1006.9
20260503173637 55 0 0.0 0.0 0.00 0.00 0.00 52 1006.8
20260503173537 56 0 0.0 0.0 0.00 0.00 0.00 51 1006.9
20260503173437 56 0 0.0 0.0 0.00 0.00 0.00 52 1006.9
20260503173337 55 0 0.0 0.0 0.00 0.00 0.00 53 1007.0
20260503173237 56 0 0.0 0.0 0.00 0.00 0.00 52 1006.9
20260503173137 56 0 0.0 0.0 0.00 0.00 0.00 52 1007.0
20260503173037 55 0 0.0 0.0 0.00 0.00 0.00 52 1006.9
20260503172937 55 0 0.0 0.0 0.00 0.00 0.00 52 1007.0
20260503172837 55 0 0.0 0.0 0.00 0.00 0.00 52 1007.0
20260503172737 55 0 0.0 0.0 0.00 0.00 0.00 52 1007.0
20260503172637 55 0 0.0 0.0 0.00 0.00 0.00 53 1007.0
20260503172537 55 0 0.0 0.0 0.00 0.00 0.00 52 1007.1
20260503172437 56 0 0.0 0.0 0.00 0.00 0.00 52 1007.0
20260503172337 55 0 0.0 0.0 0.00 0.00 0.00 52 1007.0
20260503172237 56 0 0.0 0.0 0.00 0.00 0.00 51 1006.9
20260503172137 56 0 0.0 0.0 0.00 0.00 0.00 52 1006.9
20260503172037 56 0 0.0 0.0 0.00 0.00 0.00 50 1006.9
20260503171937 56 0 0.0 0.0 0.00 0.00 0.00 50 1006.9
20260503171837 56 0 0.0 0.0 0.00 0.00 0.00 51 1006.9
20260503171736 56 0 0.0 0.0 0.00 0.00 0.00 52 1007.0
20260503171636 56 0 0.0 0.0 0.00 0.00 0.00 50 1007.0
20260503171537 56 0 0.0 0.0 0.00 0.00 0.00 51 1006.9
20260503171436 56 0 0.0 0.0 0.00 0.00 0.00 50 1006.9
20260503171337 56 0 0.0 0.0 0.00 0.00 0.00 51 1006.9
20260503171236 56 0 0.0 0.0 0.00 0.00 0.00 51 1006.9
20260503171136 56 0 0.0 0.0 0.00 0.00 0.00 51 1007.0
20260503171036 56 0 0.0 0.0 0.00 0.00 0.00 51 1006.9
20260503170936 56 0 0.0 0.0 0.00 0.00 0.00 51 1006.9
20260503170836 56 0 0.0 0.0 0.00 0.00 0.00 50 1006.9
20260503170736 56 0 0.0 0.0 0.00 0.00 0.00 50 1006.9
20260503170636 57 0 0.0 0.0 0.00 0.00 0.00 49 1007.0
20260503170536 57 0 0.0 0.0 0.00 0.00 0.00 49 1006.9
20260503170436 57 0 0.0 0.0 0.00 0.00 0.00 49 1006.9
20260503170336 57 0 0.0 0.0 0.00 0.00 0.00 48 1006.9
20260503170236 58 0 0.0 0.0 0.00 0.00 0.00 48 1006.9
20260503170136 57 0 0.0 0.0 0.00 0.00 0.00 49 1006.9
20260503160135 59 0 0.0 0.0 0.00 0.00 0.00 45 1006.9
20260503150935 57 0 0.0 0.0 0.00 0.00 0.00 50 1007.0
20260503150835 58 0 0.0 0.0 0.00 0.00 0.00 49 1006.9
20260503150735 58 0 0.0 0.0 0.00 0.00 0.00 49 1006.8
20260503150635 58 0 0.0 0.0 0.00 0.00 0.00 49 1006.9
20260503150535 57 0 0.0 0.0 0.00 0.00 0.00 49 1006.8
20260503150435 57 0 0.0 0.0 0.00 0.00 0.00 50 1006.9
20260503150335 57 0 0.0 0.0 0.00 0.00 0.00 50 1006.8
20260503150234 57 0 0.0 0.0 0.00 0.00 0.00 50 1006.9
20260503150134 58 0 0.0 0.0 0.00 0.00 0.00 49 1006.8
20260503140234 55 0 0.0 0.0 0.00 0.00 0.00 54 1006.9
20260503140134 55 0 0.0 0.0 0.00 0.00 0.00 53 1006.9
20260503131333 55 0 0.0 0.0 0.00 0.00 0.00 59 1006.6
20260503131233 54 0 0.0 0.0 0.00 0.00 0.00 60 1006.9
20260503131133 54 0 0.0 0.0 0.00 0.00 0.00 60 1006.7
20260503131033 55 0 0.0 0.0 0.00 0.00 0.00 58 1006.7
20260503130933 55 0 0.0 0.0 0.00 0.00 0.00 59 1006.8
20260503130833 55 0 0.0 0.0 0.00 0.00 0.00 58 1006.7
20260503130733 55 0 0.0 0.0 0.00 0.00 0.00 58 1006.5
20260503130633 56 0 0.0 0.0 0.00 0.00 0.00 58 1006.6
20260503130533 56 0 0.0 0.0 0.00 0.00 0.00 58 1006.6
20260503130433 55 0 0.0 0.0 0.00 0.00 0.00 58 1006.6
20260503130333 55 0 0.0 0.0 0.00 0.00 0.00 59 1006.6
20260503130233 54 0 0.0 0.0 0.00 0.00 0.00 60 1006.6
20260503130133 54 0 0.0 0.0 0.00 0.00 0.00 60 1006.6
20260503120132 55 0 0.0 0.0 0.00 0.00 0.00 55 1006.4